Flag for Bahrain Weather past 2 weeks in Manama, Bahrain

Now
86 °F

Clear.


Feels Like: 93 °F
Forecast: 87 / 100 °F
Wind: 3 mph from Northeast

Location: Bahrain International Airport

Current Time: Sep 22, 2014 at 3:51:51 AM

Latest Report: Sep 22, 2014 at 3:00 AM


Visibility: 5 mi

Pressure: 29.62 "Hg

Humidity: 66%

Dew point: 73 °F

Location of ManamaLocation

Historic Weather in Manama — Graph

°F

Manama temperature yesterday

Maximum temperature yesterday: 102 °F (at 11:00 AM)
Minimum temperature yesterday: 84 °F (at 6:00 AM)
Average temperature yesterday: 92 °F

Past Weeks' High & Low Weather Summary

 TemperatureHumidityPressure
High104 °F (Sep 7, 2:00 PM)71% (Sep 7, 6:00 AM)29.80 "Hg (Sep 7, 6:00 AM)
Low84 °F (Sep 21, 6:00 AM)15% (Sep 16, 9:00 AM)29.53 "Hg (Sep 7, 2:00 AM)
Average94 °F47%29.65 "Hg
* Reported Sep 7 2:00 AM — Sep 22 2:00 AM, Manama, Weather by CustomWeather, © 2014

Note: Actual official high and low records may vary slightly from our data, if they occured in-between our weather recording intervals... More about our weather records

Advertising

Manama weather history for previous 24 hours

 ConditionsComfort  
Time TempWeatherWind HumidityBarometerVisibility
2:00 AM
Sep 22
88 °FClear.5 mph66%29.62 "Hg5 mi
1:00 AM86 °FClear.5 mph70%29.65 "Hg5 mi
12:00 AM90 °FClear.3 mph63%29.65 "Hg5 mi
11:00 PM
Sep 21
88 °FClear.5 mph59%29.65 "Hg5 mi
10:00 PM88 °FClear.5 mph59%29.65 "Hg5 mi
9:00 PM90 °FClear.3 mph59%29.65 "Hg5 mi
8:00 PM90 °FClear.6 mph63%29.65 "Hg5 mi
7:00 PM90 °FClear.6 mph67%29.62 "Hg5 mi
6:00 PM91 °FHaze.5 mph63%29.62 "Hg5 mi
5:00 PM95 °FSunny.6 mph34%29.62 "Hg10 mi
4:00 PM99 °FSunny.6 mph24%29.62 "Hg10 mi
3:00 PM97 °FSunny.8 mph37%29.62 "Hg10 mi
2:00 PM99 °FPassing clouds.7 mph37%29.62 "HgN/A
1:00 PM97 °FSunny.7 mph34%29.65 "Hg10 mi
12:00 PM99 °FSunny.8 mph44%29.65 "Hg10 mi
11:00 AM102 °FPassing clouds.3 mph27%29.68 "HgN/A
10:00 AM100 °FPassing clouds.5 mph27%29.68 "HgN/A
9:00 AM95 °FSunny.5 mph41%29.71 "Hg10 mi
8:00 AM93 °FSunny.3 mph56%29.68 "Hg10 mi
7:00 AM90 °FSunny.2 mph63%29.68 "Hg10 mi
6:00 AM84 °FSunny.No wind58%29.65 "Hg10 mi
5:00 AM86 °FClear.No wind49%29.65 "Hg10 mi
4:00 AM86 °FClear.3 mph52%29.62 "Hg10 mi
3:00 AM88 °FClear.2 mph52%29.62 "Hg10 mi
Weather by CustomWeather, © 2014

See weather overviewHow to use our weather pages